Time,TemperatureF,DewpointF,PressureIn,WindDirection,WindDirectionDegrees,WindSpeedMPH,WindSpeedGustMPH,Humidity,HourlyPrecipIn,Conditions,Clouds,dailyrainin,SoftwareType,DateUTC
2013-03-22 00:00:00,30.0,18.2,29.73,SE,135,3.0,11.0,61,0.00,,,0.00,Weather View 32 v70,2013-03-22 04:00:00,
2013-03-22 00:05:00,30.0,18.2,29.73,South,180,3.0,10.0,61,0.00,,,0.00,Weather View 32 v70,2013-03-22 04:05:00,
2013-03-22 00:10:00,30.0,18.2,29.73,South,180,3.0,10.0,61,0.00,,,0.00,Weather View 32 v70,2013-03-22 04:10:00,
2013-03-22 00:15:00,29.0,17.2,29.74,South,180,5.0,10.0,61,0.00,,,0.00,Weather View 32 v70,2013-03-22 04:15:00,
2013-03-22 00:20:00,29.0,17.2,29.74,South,180,2.0,9.0,61,0.00,,,0.00,Weather View 32 v70,2013-03-22 04:20:00,
2013-03-22 00:30:00,29.0,16.8,29.73,SW,225,2.0,9.0,60,0.00,,,0.00,Weather View 32 v70,2013-03-22 04:30:00,
2013-03-22 00:40:00,29.0,16.8,29.74,South,180,3.0,8.0,60,0.00,,,0.00,Weather View 32 v70,2013-03-22 04:40:00,
2013-03-22 00:50:00,29.0,16.5,29.73,South,180,4.0,8.0,59,0.00,,,0.00,Weather View 32 v70,2013-03-22 04:50:00,
2013-03-22 00:55:00,29.0,16.5,29.73,South,180,5.0,8.0,59,0.00,,,0.00,Weather View 32 v70,2013-03-22 04:55:00,
2013-03-22 01:00:00,29.0,16.5,29.73,South,180,5.0,6.0,59,0.00,,,0.00,Weather View 32 v70,2013-03-22 05:00:00,
2013-03-22 01:10:00,29.0,15.7,29.74,South,180,3.0,8.0,57,0.00,,,0.00,Weather View 32 v70,2013-03-22 05:10:00,
2013-03-22 01:20:00,29.0,15.7,29.74,SSE,158,2.0,8.0,57,0.00,,,0.00,Weather View 32 v70,2013-03-22 05:20:00,
2013-03-22 01:25:00,29.0,15.7,29.74,South,180,2.0,8.0,57,0.00,,,0.00,Weather View 32 v70,2013-03-22 05:25:00,
2013-03-22 01:35:00,29.0,16.1,29.74,ESE,112,4.0,8.0,58,0.00,,,0.00,Weather View 32 v70,2013-03-22 05:35:00,
2013-03-22 01:40:00,29.0,16.5,29.73,SE,135,4.0,8.0,59,0.00,,,0.00,Weather View 32 v70,2013-03-22 05:40:00,
2013-03-22 01:45:00,29.0,16.5,29.73,SSE,158,5.0,8.0,59,0.00,,,0.00,Weather View 32 v70,2013-03-22 05:45:00,
2013-03-22 01:50:00,29.0,16.5,29.73,SE,135,3.0,8.0,59,0.00,,,0.00,Weather View 32 v70,2013-03-22 05:50:00,
2013-03-22 01:55:00,28.0,15.9,29.73,South,180,3.0,8.0,60,0.00,,,0.00,Weather View 32 v70,2013-03-22 05:55:00,
2013-03-22 02:00:00,29.0,16.8,29.73,SE,135,2.0,8.0,60,0.00,,,0.00,Weather View 32 v70,2013-03-22 06:00:00,
2013-03-22 02:10:00,29.0,17.2,29.73,SSE,158,5.0,9.0,61,0.00,,,0.00,Weather View 32 v70,2013-03-22 06:10:00,
2013-03-22 02:20:00,29.0,17.6,29.73,South,180,3.0,9.0,62,0.00,,,0.00,Weather View 32 v70,2013-03-22 06:20:00,
2013-03-22 02:30:00,29.0,18.0,29.73,SSE,158,5.0,9.0,63,0.00,,,0.00,Weather View 32 v70,2013-03-22 06:30:00,
2013-03-22 02:35:00,29.0,18.3,29.73,South,180,3.0,9.0,64,0.00,,,0.00,Weather View 32 v70,2013-03-22 06:35:00,
2013-03-22 02:40:00,29.0,18.3,29.73,SSE,158,2.0,9.0,64,0.00,,,0.00,Weather View 32 v70,2013-03-22 06:40:00,
2013-03-22 02:50:00,29.0,18.7,29.73,South,180,8.0,10.0,65,0.00,,,0.00,Weather View 32 v70,2013-03-22 06:50:00,
2013-03-22 02:55:00,29.0,18.7,29.73,SSW,202,5.0,12.0,65,0.00,,,0.00,Weather View 32 v70,2013-03-22 06:55:00,
2013-03-22 03:00:00,29.0,19.1,29.73,South,180,8.0,12.0,66,0.00,,,0.00,Weather View 32 v70,2013-03-22 07:00:00,
2013-03-22 03:10:00,29.0,19.1,29.73,SSW,202,5.0,12.0,66,0.00,,,0.00,Weather View 32 v70,2013-03-22 07:10:00,
2013-03-22 03:20:00,29.0,19.1,29.72,South,180,5.0,12.0,66,0.00,,,0.00,Weather View 32 v70,2013-03-22 07:20:00,
2013-03-22 03:30:00,29.0,19.1,29.73,SSE,158,5.0,12.0,66,0.00,,,0.00,Weather View 32 v70,2013-03-22 07:30:00,
2013-03-22 03:40:00,30.0,20.4,29.73,South,180,4.0,12.0,67,0.00,,,0.00,Weather View 32 v70,2013-03-22 07:40:00,
2013-03-22 03:45:00,30.0,20.4,29.73,SSW,202,4.0,12.0,67,0.00,,,0.00,Weather View 32 v70,2013-03-22 07:45:00,
2013-03-22 03:50:00,30.0,20.4,29.73,South,180,6.0,12.0,67,0.00,,,0.00,Weather View 32 v70,2013-03-22 07:50:00,
2013-03-22 03:55:00,30.0,20.4,29.73,SSW,202,5.0,11.0,67,0.00,,,0.00,Weather View 32 v70,2013-03-22 07:55:00,
2013-03-22 04:00:00,30.0,20.4,29.73,South,180,4.0,11.0,67,0.00,,,0.00,Weather View 32 v70,2013-03-22 08:00:00,
2013-03-22 04:10:00,30.0,20.7,29.72,SSW,202,3.0,11.0,68,0.00,,,0.00,Weather View 32 v70,2013-03-22 08:10:00,
2013-03-22 04:15:00,30.0,20.7,29.72,SSW,202,8.0,11.0,68,0.00,,,0.00,Weather View 32 v70,2013-03-22 08:15:00,
2013-03-22 04:20:00,30.0,20.7,29.72,South,180,3.0,11.0,68,0.00,,,0.00,Weather View 32 v70,2013-03-22 08:20:00,
2013-03-22 04:25:00,30.0,20.7,29.72,South,180,6.0,11.0,68,0.00,,,0.00,Weather View 32 v70,2013-03-22 08:25:00,
2013-03-22 04:30:00,30.0,21.1,29.72,South,180,6.0,11.0,69,0.00,,,0.00,Weather View 32 v70,2013-03-22 08:30:00,
2013-03-22 04:40:00,29.0,20.1,29.72,SSE,158,6.0,11.0,69,0.00,,,0.00,Weather View 32 v70,2013-03-22 08:40:00,
2013-03-22 04:50:00,29.0,20.1,29.72,South,180,4.0,11.0,69,0.00,,,0.00,Weather View 32 v70,2013-03-22 08:50:00,
2013-03-22 04:55:00,29.0,20.1,29.72,South,180,5.0,11.0,69,0.00,,,0.00,Weather View 32 v70,2013-03-22 08:55:00,
2013-03-22 05:05:00,29.0,20.4,29.72,South,180,7.0,11.0,70,0.00,,,0.00,Weather View 32 v70,2013-03-22 09:05:00,
2013-03-22 05:10:00,29.0,20.4,29.72,South,180,9.0,11.0,70,0.00,,,0.00,Weather View 32 v70,2013-03-22 09:10:00,
2013-03-22 05:20:00,29.0,20.8,29.73,South,180,5.0,12.0,71,0.00,,,0.00,Weather View 32 v70,2013-03-22 09:20:00,
2013-03-22 05:30:00,29.0,20.8,29.73,SSE,158,5.0,13.0,71,0.00,,,0.00,Weather View 32 v70,2013-03-22 09:30:00,
2013-03-22 05:40:00,29.0,21.1,29.73,South,180,7.0,13.0,72,0.00,,,0.00,Weather View 32 v70,2013-03-22 09:40:00,
2013-03-22 05:45:00,29.0,21.1,29.73,SSW,202,7.0,13.0,72,0.00,,,0.00,Weather View 32 v70,2013-03-22 09:45:00,
2013-03-22 05:50:00,29.0,21.1,29.73,SSE,158,10.0,13.0,72,0.00,,,0.00,Weather View 32 v70,2013-03-22 09:50:00,
2013-03-22 05:55:00,29.0,21.1,29.73,SSW,202,6.0,13.0,72,0.00,,,0.00,Weather View 32 v70,2013-03-22 09:55:00,
2013-03-22 06:00:00,29.0,21.4,29.74,South,180,5.0,13.0,73,0.00,,,0.00,Weather View 32 v70,2013-03-22 10:00:00,
2013-03-22 06:10:00,29.0,21.4,29.74,South,180,5.0,13.0,73,0.00,,,0.00,Weather View 32 v70,2013-03-22 10:10:00,
2013-03-22 06:20:00,29.0,21.8,29.74,South,180,6.0,13.0,74,0.00,,,0.00,Weather View 32 v70,2013-03-22 10:20:00,
2013-03-22 06:30:00,29.0,22.1,29.74,South,180,3.0,13.0,75,0.00,,,0.00,Weather View 32 v70,2013-03-22 10:30:00,
2013-03-22 06:35:00,29.0,22.4,29.75,SSE,158,3.0,13.0,76,0.00,,,0.00,Weather View 32 v70,2013-03-22 10:35:00,
2013-03-22 06:40:00,28.0,21.4,29.75,South,180,5.0,12.0,76,0.00,,,0.00,Weather View 32 v70,2013-03-22 10:40:00,
2013-03-22 06:45:00,28.0,21.4,29.75,South,180,4.0,12.0,76,0.00,,,0.00,Weather View 32 v70,2013-03-22 10:45:00,
2013-03-22 06:50:00,28.0,21.7,29.75,SSW,202,5.0,12.0,77,0.00,,,0.00,Weather View 32 v70,2013-03-22 10:50:00,
2013-03-22 06:55:00,28.0,21.7,29.75,South,180,5.0,12.0,77,0.00,,,0.00,Weather View 32 v70,2013-03-22 10:55:00,
2013-03-22 07:00:00,28.0,21.7,29.75,South,180,6.0,12.0,77,0.00,,,0.00,Weather View 32 v70,2013-03-22 11:00:00,
2013-03-22 07:10:00,28.0,22.0,29.76,South,180,4.0,12.0,78,0.00,,,0.00,Weather View 32 v70,2013-03-22 11:10:00,
2013-03-22 07:20:00,28.0,22.3,29.76,South,180,4.0,12.0,79,0.00,,,0.00,Weather View 32 v70,2013-03-22 11:20:00,
2013-03-22 07:25:00,29.0,23.6,29.76,South,180,6.0,10.0,80,0.00,,,0.00,Weather View 32 v70,2013-03-22 11:25:00,
2013-03-22 07:30:00,29.0,23.3,29.77,South,180,5.0,11.0,79,0.00,,,0.00,Weather View 32 v70,2013-03-22 11:30:00,
2013-03-22 07:40:00,29.0,23.3,29.77,South,180,5.0,12.0,79,0.00,,,0.00,Weather View 32 v70,2013-03-22 11:40:00,
2013-03-22 07:45:00,29.0,23.3,29.77,South,180,7.0,13.0,79,0.00,,,0.00,Weather View 32 v70,2013-03-22 11:45:00,
2013-03-22 07:50:00,30.0,24.3,29.77,SSW,202,6.0,13.0,79,0.00,,,0.00,Weather View 32 v70,2013-03-22 11:50:00,
2013-03-22 07:55:00,30.0,24.0,29.77,SSW,202,13.0,13.0,78,0.00,,,0.00,Weather View 32 v70,2013-03-22 11:55:00,
2013-03-22 08:00:00,30.0,23.7,29.77,SSW,202,7.0,13.0,77,0.00,,,0.00,Weather View 32 v70,2013-03-22 12:00:00,
2013-03-22 08:10:00,31.0,24.0,29.78,SW,225,5.0,13.0,75,0.00,,,0.00,Weather View 32 v70,2013-03-22 12:10:00,
2013-03-22 08:15:00,31.0,24.0,29.78,South,180,8.0,13.0,75,0.00,,,0.00,Weather View 32 v70,2013-03-22 12:15:00,
2013-03-22 08:20:00,31.0,23.7,29.78,SSW,202,10.0,13.0,74,0.00,,,0.00,Weather View 32 v70,2013-03-22 12:20:00,
2013-03-22 08:25:00,31.0,23.7,29.78,South,180,7.0,13.0,74,0.00,,,0.00,Weather View 32 v70,2013-03-22 12:25:00,
2013-03-22 08:30:00,32.0,24.3,29.78,SSE,158,10.0,13.0,73,0.00,,,0.00,Weather View 32 v70,2013-03-22 12:30:00,
2013-03-22 08:35:00,31.0,23.4,29.78,SSW,202,13.0,16.0,73,0.00,,,0.00,Weather View 32 v70,2013-03-22 12:35:00,
2013-03-22 08:40:00,32.0,24.0,29.78,SSW,202,13.0,18.0,72,0.00,,,0.00,Weather View 32 v70,2013-03-22 12:40:00,
2013-03-22 08:45:00,32.0,24.0,29.78,South,180,8.0,18.0,72,0.00,,,0.00,Weather View 32 v70,2013-03-22 12:45:00,
2013-03-22 08:50:00,32.0,23.7,29.79,SSW,202,8.0,18.0,71,0.00,,,0.00,Weather View 32 v70,2013-03-22 12:50:00,
2013-03-22 08:55:00,32.0,23.3,29.79,SSW,202,11.0,18.0,70,0.00,,,0.00,Weather View 32 v70,2013-03-22 12:55:00,
2013-03-22 09:00:00,33.0,23.9,29.79,SW,225,6.0,18.0,69,0.00,,,0.00,Weather View 32 v70,2013-03-22 13:00:00,
2013-03-22 09:05:00,32.0,22.6,29.79,SW,225,11.0,19.0,68,0.00,,,0.00,Weather View 32 v70,2013-03-22 13:05:00,
2013-03-22 09:10:00,33.0,23.6,29.79,SSW,202,12.0,19.0,68,0.00,,,0.00,Weather View 32 v70,2013-03-22 13:10:00,
2013-03-22 09:15:00,33.0,23.6,29.78,SSW,202,11.0,19.0,68,0.00,,,0.00,Weather View 32 v70,2013-03-22 13:15:00,
2013-03-22 09:20:00,33.0,23.2,29.78,WSW,248,10.0,19.0,67,0.00,,,0.00,Weather View 32 v70,2013-03-22 13:20:00,
2013-03-22 09:25:00,33.0,23.2,29.78,SW,225,9.0,19.0,67,0.00,,,0.00,Weather View 32 v70,2013-03-22 13:25:00,
2013-03-22 09:30:00,33.0,22.9,29.78,SW,225,13.0,19.0,66,0.00,,,0.00,Weather View 32 v70,2013-03-22 13:30:00,
2013-03-22 09:35:00,33.0,22.5,29.78,South,180,9.0,19.0,65,0.00,,,0.00,Weather View 32 v70,2013-03-22 13:35:00,
2013-03-22 09:45:00,33.0,22.1,29.79,WSW,248,14.0,19.0,64,0.00,,,0.00,Weather View 32 v70,2013-03-22 13:45:00,
2013-03-22 09:50:00,34.0,22.7,29.79,South,180,6.0,19.0,63,0.00,,,0.00,Weather View 32 v70,2013-03-22 13:50:00,
2013-03-22 09:55:00,34.0,22.3,29.79,SSW,202,11.0,19.0,62,0.00,,,0.00,Weather View 32 v70,2013-03-22 13:55:00,
2013-03-22 10:00:00,34.0,22.3,29.79,SSW,202,19.0,19.0,62,0.00,,,0.00,Weather View 32 v70,2013-03-22 14:00:00,
2013-03-22 10:05:00,33.0,21.4,29.79,SSW,202,15.0,21.0,62,0.00,,,0.00,Weather View 32 v70,2013-03-22 14:05:00,
2013-03-22 10:10:00,34.0,22.0,29.79,South,180,19.0,23.0,61,0.00,,,0.00,Weather View 32 v70,2013-03-22 14:10:00,
2013-03-22 10:15:00,34.0,21.6,29.79,SW,225,11.0,23.0,60,0.00,,,0.00,Weather View 32 v70,2013-03-22 14:15:00,
2013-03-22 10:25:00,35.0,22.5,29.80,SW,225,12.0,23.0,60,0.00,,,0.00,Weather View 32 v70,2013-03-22 14:25:00,
2013-03-22 10:33:00,34.0,20.8,29.80,SSW,202,13.0,24.0,58,0.00,,,0.00,Weather View 32 v70,2013-03-22 14:33:00,
2013-03-22 10:40:00,35.0,21.7,29.80,SSW,202,8.0,24.0,58,0.00,,,0.00,Weather View 32 v70,2013-03-22 14:40:00,
2013-03-22 10:45:00,35.0,21.3,29.80,SSW,202,14.0,24.0,57,0.00,,,0.00,Weather View 32 v70,2013-03-22 14:45:00,
2013-03-22 10:50:00,35.0,21.3,29.80,SSW,202,11.0,24.0,57,0.00,,,0.00,Weather View 32 v70,2013-03-22 14:50:00,
2013-03-22 10:55:00,36.0,22.2,29.80,WSW,248,11.0,24.0,57,0.00,,,0.00,Weather View 32 v70,2013-03-22 14:55:00,
2013-03-22 11:00:00,35.0,21.3,29.80,SSW,202,10.0,24.0,57,0.00,,,0.00,Weather View 32 v70,2013-03-22 15:00:00,
2013-03-22 11:05:00,35.0,20.9,29.80,West,270,6.0,24.0,56,0.00,,,0.00,Weather View 32 v70,2013-03-22 15:05:00,
2013-03-22 11:10:00,35.0,20.9,29.80,SW,225,14.0,24.0,56,0.00,,,0.00,Weather View 32 v70,2013-03-22 15:10:00,
2013-03-22 11:20:00,37.0,22.7,29.79,SW,225,8.0,24.0,56,0.00,,,0.00,Weather View 32 v70,2013-03-22 15:20:00,
2013-03-22 11:25:00,37.0,21.4,29.79,WSW,248,19.0,24.0,53,0.00,,,0.00,Weather View 32 v70,2013-03-22 15:25:00,
2013-03-22 11:30:00,36.0,20.1,29.79,South,180,8.0,24.0,52,0.00,,,0.00,Weather View 32 v70,2013-03-22 15:30:00,
2013-03-22 11:40:00,37.0,21.9,29.79,SW,225,11.0,24.0,54,0.00,,,0.00,Weather View 32 v70,2013-03-22 15:40:00,
2013-03-22 11:45:00,37.0,21.4,29.79,SSW,202,6.0,24.0,53,0.00,,,0.00,Weather View 32 v70,2013-03-22 15:45:00,
2013-03-22 11:50:00,37.0,21.9,29.79,West,270,3.0,24.0,54,0.00,,,0.00,Weather View 32 v70,2013-03-22 15:50:00,
2013-03-22 11:55:00,38.0,22.4,29.78,SW,225,8.0,24.0,53,0.00,,,0.00,Weather View 32 v70,2013-03-22 15:55:00,
2013-03-22 12:00:00,37.0,21.0,29.79,SSW,202,17.0,24.0,52,0.00,,,0.00,Weather View 32 v70,2013-03-22 16:00:00,
2013-03-22 12:05:00,37.0,21.0,29.78,SW,225,10.0,24.0,52,0.00,,,0.00,Weather View 32 v70,2013-03-22 16:05:00,
2013-03-22 12:10:00,37.0,21.0,29.78,West,270,3.0,24.0,52,0.00,,,0.00,Weather View 32 v70,2013-03-22 16:10:00,
2013-03-22 12:15:00,38.0,22.4,29.78,SW,225,11.0,24.0,53,0.00,,,0.00,Weather View 32 v70,2013-03-22 16:15:00,
2013-03-22 12:20:00,38.0,21.5,29.78,SSW,202,9.0,24.0,51,0.00,,,0.00,Weather View 32 v70,2013-03-22 16:20:00,
2013-03-22 12:25:00,38.0,21.5,29.78,SSW,202,12.0,24.0,51,0.00,,,0.00,Weather View 32 v70,2013-03-22 16:25:00,
2013-03-22 12:30:00,38.0,21.5,29.78,South,180,6.0,24.0,51,0.00,,,0.00,Weather View 32 v70,2013-03-22 16:30:00,
2013-03-22 12:35:00,38.0,21.5,29.78,SSW,202,11.0,21.0,51,0.00,,,0.00,Weather View 32 v70,2013-03-22 16:35:00,
2013-03-22 12:40:00,39.0,22.4,29.78,SSW,202,8.0,21.0,51,0.00,,,0.00,Weather View 32 v70,2013-03-22 16:40:00,
2013-03-22 12:45:00,39.0,21.9,29.78,SW,225,13.0,21.0,50,0.00,,,0.00,Weather View 32 v70,2013-03-22 16:45:00,
2013-03-22 12:50:00,38.0,20.5,29.78,SW,225,10.0,21.0,49,0.00,,,0.00,Weather View 32 v70,2013-03-22 16:50:00,
2013-03-22 12:55:00,38.0,21.5,29.78,SSW,202,13.0,21.0,51,0.00,,,0.00,Weather View 32 v70,2013-03-22 16:55:00,
2013-03-22 13:00:00,38.0,21.5,29.78,SSW,202,14.0,23.0,51,0.00,,,0.00,Weather View 32 v70,2013-03-22 17:00:00,
2013-03-22 13:05:00,39.0,22.4,29.78,SSW,202,8.0,23.0,51,0.00,,,0.00,Weather View 32 v70,2013-03-22 17:05:00,
2013-03-22 13:10:00,39.0,22.4,29.77,SW,225,9.0,23.0,51,0.00,,,0.00,Weather View 32 v70,2013-03-22 17:10:00,
2013-03-22 13:15:00,40.0,23.8,29.77,South,180,8.0,23.0,52,0.00,,,0.00,Weather View 32 v70,2013-03-22 17:15:00,
2013-03-22 13:20:00,39.0,20.5,29.78,SSW,202,16.0,23.0,47,0.00,,,0.00,Weather View 32 v70,2013-03-22 17:20:00,
2013-03-22 13:25:00,40.0,21.4,29.77,South,180,16.0,23.0,47,0.00,,,0.00,Weather View 32 v70,2013-03-22 17:25:00,
2013-03-22 13:30:00,39.0,19.9,29.76,SW,225,14.0,23.0,46,0.00,,,0.00,Weather View 32 v70,2013-03-22 17:30:00,
2013-03-22 13:40:00,40.0,20.3,29.77,SW,225,13.0,24.0,45,0.00,,,0.00,Weather View 32 v70,2013-03-22 17:40:00,
2013-03-22 13:50:00,40.0,20.9,29.77,SSW,202,11.0,24.0,46,0.00,,,0.00,Weather View 32 v70,2013-03-22 17:50:00,
2013-03-22 13:55:00,40.0,20.9,29.77,SW,225,13.0,24.0,46,0.00,,,0.00,Weather View 32 v70,2013-03-22 17:55:00,
2013-03-22 14:00:00,40.0,19.8,29.77,SW,225,14.0,24.0,44,0.00,,,0.00,Weather View 32 v70,2013-03-22 18:00:00,
2013-03-22 14:05:00,40.0,20.3,29.77,SW,225,16.0,24.0,45,0.00,,,0.00,Weather View 32 v70,2013-03-22 18:05:00,
2013-03-22 14:10:00,39.0,19.4,29.76,SW,225,16.0,24.0,45,0.00,,,0.00,Weather View 32 v70,2013-03-22 18:10:00,
2013-03-22 14:15:00,40.0,20.9,29.77,SSW,202,12.0,24.0,46,0.00,,,0.00,Weather View 32 v70,2013-03-22 18:15:00,
2013-03-22 14:20:00,41.0,22.3,29.77,South,180,13.0,24.0,47,0.00,,,0.00,Weather View 32 v70,2013-03-22 18:20:00,
2013-03-22 14:25:00,41.0,21.8,29.77,South,180,8.0,26.0,46,0.00,,,0.00,Weather View 32 v70,2013-03-22 18:25:00,
2013-03-22 14:30:00,41.0,22.3,29.77,South,180,12.0,26.0,47,0.00,,,0.00,Weather View 32 v70,2013-03-22 18:30:00,
2013-03-22 14:35:00,40.0,21.4,29.77,South,180,13.0,26.0,47,0.00,,,0.00,Weather View 32 v70,2013-03-22 18:35:00,
2013-03-22 14:40:00,40.0,21.4,29.77,SSW,202,13.0,26.0,47,0.00,,,0.00,Weather View 32 v70,2013-03-22 18:40:00,
2013-03-22 14:45:00,40.0,21.4,29.77,SSW,202,13.0,26.0,47,0.00,,,0.00,Weather View 32 v70,2013-03-22 18:45:00,
2013-03-22 14:50:00,40.0,20.9,29.77,South,180,13.0,26.0,46,0.00,,,0.00,Weather View 32 v70,2013-03-22 18:50:00,
2013-03-22 14:55:00,40.0,20.9,29.76,SW,225,9.0,26.0,46,0.00,,,0.00,Weather View 32 v70,2013-03-22 18:55:00,
2013-03-22 15:00:00,40.0,20.3,29.76,SW,225,15.0,26.0,45,0.00,,,0.00,Weather View 32 v70,2013-03-22 19:00:00,
2013-03-22 15:05:00,40.0,20.3,29.76,West,270,9.0,26.0,45,0.00,,,0.00,Weather View 32 v70,2013-03-22 19:05:00,
2013-03-22 15:10:00,40.0,20.9,29.76,SW,225,10.0,26.0,46,0.00,,,0.00,Weather View 32 v70,2013-03-22 19:10:00,
2013-03-22 15:15:00,40.0,21.4,29.76,SSW,202,14.0,26.0,47,0.00,,,0.00,Weather View 32 v70,2013-03-22 19:15:00,
2013-03-22 15:20:00,40.0,20.9,29.77,SW,225,10.0,26.0,46,0.00,,,0.00,Weather View 32 v70,2013-03-22 19:20:00,
2013-03-22 15:25:00,41.0,21.8,29.77,South,180,14.0,26.0,46,0.00,,,0.00,Weather View 32 v70,2013-03-22 19:25:00,
2013-03-22 15:30:00,41.0,20.7,29.76,SSW,202,8.0,24.0,44,0.00,,,0.00,Weather View 32 v70,2013-03-22 19:30:00,
2013-03-22 15:35:00,41.0,20.7,29.77,SSW,202,13.0,24.0,44,0.00,,,0.00,Weather View 32 v70,2013-03-22 19:35:00,
2013-03-22 15:40:00,41.0,20.2,29.77,WSW,248,10.0,24.0,43,0.00,,,0.00,Weather View 32 v70,2013-03-22 19:40:00,
2013-03-22 15:45:00,40.0,19.8,29.77,SW,225,13.0,24.0,44,0.00,,,0.00,Weather View 32 v70,2013-03-22 19:45:00,
2013-03-22 15:50:00,40.0,19.8,29.77,SW,225,10.0,24.0,44,0.00,,,0.00,Weather View 32 v70,2013-03-22 19:50:00,
2013-03-22 15:55:00,41.0,21.3,29.77,WSW,248,7.0,24.0,45,0.00,,,0.00,Weather View 32 v70,2013-03-22 19:55:00,
2013-03-22 16:00:00,41.0,20.7,29.77,SW,225,10.0,24.0,44,0.00,,,0.00,Weather View 32 v70,2013-03-22 20:00:00,
2013-03-22 16:10:00,41.0,20.7,29.77,SW,225,10.0,24.0,44,0.00,,,0.00,Weather View 32 v70,2013-03-22 20:10:00,
2013-03-22 16:15:00,41.0,21.3,29.77,SSW,202,9.0,24.0,45,0.00,,,0.00,Weather View 32 v70,2013-03-22 20:15:00,
2013-03-22 16:20:00,41.0,21.3,29.77,SW,225,8.0,22.0,45,0.00,,,0.00,Weather View 32 v70,2013-03-22 20:20:00,
2013-03-22 16:25:00,41.0,21.3,29.77,SSW,202,11.0,23.0,45,0.00,,,0.00,Weather View 32 v70,2013-03-22 20:25:00,
2013-03-22 16:30:00,40.0,20.9,29.77,SSW,202,10.0,23.0,46,0.00,,,0.00,Weather View 32 v70,2013-03-22 20:30:00,
2013-03-22 16:35:00,40.0,21.4,29.78,SW,225,8.0,23.0,47,0.00,,,0.00,Weather View 32 v70,2013-03-22 20:35:00,
2013-03-22 16:40:00,41.0,22.8,29.78,SW,225,6.0,23.0,48,0.00,,,0.00,Weather View 32 v70,2013-03-22 20:40:00,
2013-03-22 16:50:00,40.0,22.4,29.78,SW,225,7.0,23.0,49,0.00,,,0.00,Weather View 32 v70,2013-03-22 20:50:00,
2013-03-22 16:55:00,40.0,22.4,29.78,WSW,248,8.0,23.0,49,0.00,,,0.00,Weather View 32 v70,2013-03-22 20:55:00,
2013-03-22 17:00:00,41.0,23.3,29.78,SW,225,11.0,23.0,49,0.00,,,0.00,Weather View 32 v70,2013-03-22 21:00:00,
2013-03-22 17:05:00,41.0,22.8,29.78,South,180,11.0,23.0,48,0.00,,,0.00,Weather View 32 v70,2013-03-22 21:05:00,
2013-03-22 17:10:00,40.0,22.4,29.78,SW,225,11.0,23.0,49,0.00,,,0.00,Weather View 32 v70,2013-03-22 21:10:00,
2013-03-22 17:19:00,41.0,23.8,29.78,SW,225,7.0,23.0,50,0.00,,,0.00,Weather View 32 v70,2013-03-22 21:19:00,
2013-03-22 17:25:00,41.0,21.8,29.78,SW,225,8.0,26.0,46,0.00,,,0.00,Weather View 32 v70,2013-03-22 21:25:00,
2013-03-22 17:30:00,41.0,22.8,29.78,SW,225,10.0,26.0,48,0.00,,,0.00,Weather View 32 v70,2013-03-22 21:30:00,
2013-03-22 17:40:00,41.0,23.3,29.78,SW,225,5.0,26.0,49,0.00,,,0.00,Weather View 32 v70,2013-03-22 21:40:00,
2013-03-22 17:45:00,41.0,22.8,29.78,South,180,12.0,26.0,48,0.00,,,0.00,Weather View 32 v70,2013-03-22 21:45:00,
2013-03-22 17:50:00,41.0,22.8,29.79,South,180,8.0,26.0,48,0.00,,,0.00,Weather View 32 v70,2013-03-22 21:50:00,
2013-03-22 17:55:00,41.0,23.3,29.79,SW,225,6.0,26.0,49,0.00,,,0.00,Weather View 32 v70,2013-03-22 21:55:00,
2013-03-22 18:00:00,41.0,22.8,29.79,South,180,7.0,26.0,48,0.00,,,0.00,Weather View 32 v70,2013-03-22 22:00:00,
2013-03-22 18:05:00,41.0,22.8,29.79,SSW,202,12.0,26.0,48,0.00,,,0.00,Weather View 32 v70,2013-03-22 22:05:00,
2013-03-22 18:10:00,41.0,22.8,29.79,South,180,8.0,26.0,48,0.00,,,0.00,Weather View 32 v70,2013-03-22 22:10:00,
2013-03-22 18:15:00,41.0,22.8,29.79,South,180,12.0,26.0,48,0.00,,,0.00,Weather View 32 v70,2013-03-22 22:15:00,
2013-03-22 18:25:00,40.0,22.8,29.80,SW,225,6.0,23.0,50,0.00,,,0.00,Weather View 32 v70,2013-03-22 22:25:00,
2013-03-22 18:35:00,40.0,22.8,29.81,SSW,202,8.0,23.0,50,0.00,,,0.00,Weather View 32 v70,2013-03-22 22:35:00,
2013-03-22 18:40:00,40.0,23.3,29.81,SSW,202,7.0,22.0,51,0.00,,,0.00,Weather View 32 v70,2013-03-22 22:40:00,
2013-03-22 18:45:00,40.0,23.3,29.81,South,180,6.0,22.0,51,0.00,,,0.00,Weather View 32 v70,2013-03-22 22:45:00,
2013-03-22 18:50:00,40.0,23.3,29.81,SSE,158,12.0,22.0,51,0.00,,,0.00,Weather View 32 v70,2013-03-22 22:50:00,
2013-03-22 18:55:00,40.0,23.3,29.81,SSW,202,15.0,22.0,51,0.00,,,0.00,Weather View 32 v70,2013-03-22 22:55:00,
2013-03-22 19:00:00,40.0,23.8,29.81,South,180,10.0,22.0,52,0.00,,,0.00,Weather View 32 v70,2013-03-22 23:00:00,
2013-03-22 19:10:00,40.0,23.8,29.82,South,180,13.0,22.0,52,0.00,,,0.00,Weather View 32 v70,2013-03-22 23:10:00,
2013-03-22 19:15:00,40.0,23.8,29.82,SSW,202,4.0,22.0,52,0.00,,,0.00,Weather View 32 v70,2013-03-22 23:15:00,
2013-03-22 19:20:00,39.0,23.3,29.82,South,180,5.0,22.0,53,0.00,,,0.00,Weather View 32 v70,2013-03-22 23:20:00,
2013-03-22 19:30:00,39.0,23.7,29.82,SSE,158,8.0,21.0,54,0.00,,,0.00,Weather View 32 v70,2013-03-22 23:30:00,
2013-03-22 19:35:00,39.0,24.2,29.83,South,180,10.0,21.0,55,0.00,,,0.00,Weather View 32 v70,2013-03-22 23:35:00,
2013-03-22 19:40:00,39.0,24.6,29.83,South,180,6.0,21.0,56,0.00,,,0.00,Weather View 32 v70,2013-03-22 23:40:00,
2013-03-22 19:45:00,38.0,23.7,29.83,South,180,6.0,21.0,56,0.00,,,0.00,Weather View 32 v70,2013-03-22 23:45:00,
2013-03-22 19:50:00,38.0,24.1,29.83,SW,225,7.0,21.0,57,0.00,,,0.00,Weather View 32 v70,2013-03-22 23:50:00,
2013-03-22 19:55:00,38.0,24.5,29.83,SSE,158,5.0,21.0,58,0.00,,,0.00,Weather View 32 v70,2013-03-22 23:55:00,
2013-03-22 20:00:00,38.0,24.5,29.84,SSW,202,8.0,21.0,58,0.00,,,0.00,Weather View 32 v70,2013-03-23 00:00:00,
2013-03-22 20:05:00,38.0,24.9,29.83,SSW,202,11.0,21.0,59,0.00,,,0.00,Weather View 32 v70,2013-03-23 00:05:00,
2013-03-22 20:10:00,38.0,24.9,29.84,SSW,202,4.0,21.0,59,0.00,,,0.00,Weather View 32 v70,2013-03-23 00:10:00,
2013-03-22 20:20:00,37.0,24.8,29.84,SSW,202,6.0,19.0,61,0.00,,,0.00,Weather View 32 v70,2013-03-23 00:20:00,
2013-03-22 20:25:00,37.0,24.8,29.84,South,180,8.0,19.0,61,0.00,,,0.00,Weather View 32 v70,2013-03-23 00:25:00,
2013-03-22 20:30:00,37.0,25.2,29.84,SSW,202,6.0,18.0,62,0.00,,,0.00,Weather View 32 v70,2013-03-23 00:30:00,
2013-03-22 20:40:00,37.0,25.2,29.84,SE,135,4.0,18.0,62,0.00,,,0.00,Weather View 32 v70,2013-03-23 00:40:00,
2013-03-22 20:45:00,37.0,25.6,29.84,South,180,10.0,19.0,63,0.00,,,0.00,Weather View 32 v70,2013-03-23 00:45:00,
2013-03-22 20:50:00,37.0,25.6,29.84,SSE,158,5.0,19.0,63,0.00,,,0.00,Weather View 32 v70,2013-03-23 00:50:00,
2013-03-22 21:00:00,36.0,25.0,29.85,South,180,8.0,19.0,64,0.00,,,0.00,Weather View 32 v70,2013-03-23 01:00:00,
2013-03-22 21:10:00,36.0,25.4,29.85,SSE,158,10.0,19.0,65,0.00,,,0.00,Weather View 32 v70,2013-03-23 01:10:00,
2013-03-22 21:15:00,36.0,25.0,29.85,ESE,112,4.0,19.0,64,0.00,,,0.00,Weather View 32 v70,2013-03-23 01:15:00,
2013-03-22 21:20:00,36.0,25.4,29.85,SE,135,6.0,19.0,65,0.00,,,0.00,Weather View 32 v70,2013-03-23 01:20:00,
2013-03-22 21:30:00,36.0,25.4,29.85,South,180,10.0,19.0,65,0.00,,,0.00,Weather View 32 v70,2013-03-23 01:30:00,
2013-03-22 21:35:00,36.0,25.4,29.86,SE,135,5.0,19.0,65,0.00,,,0.00,Weather View 32 v70,2013-03-23 01:35:00,
2013-03-22 21:40:00,36.0,25.4,29.86,SSE,158,7.0,19.0,65,0.00,,,0.00,Weather View 32 v70,2013-03-23 01:40:00,
2013-03-22 21:45:00,36.0,25.4,29.86,SE,135,5.0,19.0,65,0.00,,,0.00,Weather View 32 v70,2013-03-23 01:45:00,
2013-03-22 21:50:00,35.0,24.4,29.86,SSE,158,8.0,18.0,65,0.00,,,0.00,Weather View 32 v70,2013-03-23 01:50:00,
2013-03-22 21:55:00,35.0,24.4,29.86,South,180,8.0,18.0,65,0.00,,,0.00,Weather View 32 v70,2013-03-23 01:55:00,
2013-03-22 22:00:00,35.0,24.4,29.87,South,180,7.0,18.0,65,0.00,,,0.00,Weather View 32 v70,2013-03-23 02:00:00,
2013-03-22 22:05:00,35.0,24.4,29.87,South,180,11.0,18.0,65,0.00,,,0.00,Weather View 32 v70,2013-03-23 02:05:00,
2013-03-22 22:10:00,35.0,24.4,29.87,South,180,5.0,18.0,65,0.00,,,0.00,Weather View 32 v70,2013-03-23 02:10:00,
2013-03-22 22:20:00,35.0,24.4,29.87,South,180,6.0,16.0,65,0.00,,,0.00,Weather View 32 v70,2013-03-23 02:20:00,
2013-03-22 22:30:00,35.0,24.4,29.87,South,180,5.0,16.0,65,0.00,,,0.00,Weather View 32 v70,2013-03-23 02:30:00,
2013-03-22 22:35:00,35.0,24.4,29.87,South,180,8.0,17.0,65,0.00,,,0.00,Weather View 32 v70,2013-03-23 02:35:00,
2013-03-22 22:40:00,35.0,24.4,29.87,South,180,7.0,17.0,65,0.00,,,0.00,Weather View 32 v70,2013-03-23 02:40:00,
2013-03-22 22:45:00,35.0,24.4,29.87,South,180,7.0,17.0,65,0.00,,,0.00,Weather View 32 v70,2013-03-23 02:45:00,
2013-03-22 22:50:00,35.0,24.4,29.87,SW,225,10.0,17.0,65,0.00,,,0.00,Weather View 32 v70,2013-03-23 02:50:00,
2013-03-22 22:55:00,35.0,24.4,29.87,SW,225,5.0,17.0,65,0.00,,,0.00,Weather View 32 v70,2013-03-23 02:55:00,
2013-03-22 23:00:00,35.0,24.4,29.87,South,180,8.0,17.0,65,0.00,,,0.00,Weather View 32 v70,2013-03-23 03:00:00,
2013-03-22 23:05:00,35.0,24.0,29.87,SSW,202,10.0,17.0,64,0.00,,,0.00,Weather View 32 v70,2013-03-23 03:05:00,
2013-03-22 23:10:00,35.0,24.0,29.87,SSW,202,8.0,17.0,64,0.00,,,0.00,Weather View 32 v70,2013-03-23 03:10:00,
2013-03-22 23:20:00,35.0,24.0,29.87,South,180,11.0,17.0,64,0.00,,,0.00,Weather View 32 v70,2013-03-23 03:20:00,
2013-03-22 23:25:00,35.0,24.0,29.87,SSW,202,9.0,17.0,64,0.00,,,0.00,Weather View 32 v70,2013-03-23 03:25:00,
2013-03-22 23:30:00,35.0,24.0,29.87,SSW,202,11.0,17.0,64,0.00,,,0.00,Weather View 32 v70,2013-03-23 03:30:00,
2013-03-22 23:40:00,34.0,23.1,29.87,South,180,10.0,17.0,64,0.00,,,0.00,Weather View 32 v70,2013-03-23 03:40:00,
2013-03-22 23:45:00,34.0,23.1,29.87,SSW,202,8.0,17.0,64,0.00,,,0.00,Weather View 32 v70,2013-03-23 03:45:00,
2013-03-22 23:50:00,35.0,24.0,29.87,South,180,8.0,18.0,64,0.00,,,0.00,Weather View 32 v70,2013-03-23 03:50:00,
2013-03-22 23:55:00,35.0,24.0,29.87,South,180,8.0,18.0,64,0.00,,,0.00,Weather View 32 v70,2013-03-23 03:55:00,